Location: T�bingen+AIT
(48.5342°N, 9.0700°E)
Time: 01:50:18
(UTC+02:00)

Cosmos 1271 Rocket - Pass Details

Date: 14 September 2017
Orbit: 500 x 548 km, 81.2° (Epoch: 23 September)

Event Time Altitude Azimuth Distance (km) Brightness Sun altitude
Rises 21:05:17 0° 188° (S) 2,581 6.1 -14.8°
Reaches altitude 10° 21:07:23 10° 188° (S) 1,703 5.2 -15.1°
Maximum altitude 21:11:07 84° 102° (ESE) 512 2.5 -15.6°
Drops below altitude 10° 21:14:55 10° 13° (NNE) 1,731 5.5 -16.2°
Sets 21:17:03 0° 13° (NNE) 2,628 6.5 -16.5°
